Weather History for KCHO - January, 2013

Change the Weather History Date:

Monday, January 28, 2013

  Actual Average Record
Temperature  
Mean Temperature 42 °F 36 °F  
Max Temperature 53 °F 45 °F 75 °F (1944)
Min Temperature 31 °F 26 °F 3 °F (1935)
Degree Days  
Heating Degree Days 23 29  
Month to date heating degree days 743 837  
Since 1 July heating degree days 2255 2573  
Cooling Degree Days 0 0  
Month to date cooling degree days 0 0  
Year to date cooling degree days 0 0  
Moisture  
Dew Point 33 °F    
Average Humidity 78    
Maximum Humidity 92    
Minimum Humidity 63    
Precipitation  
Precipitation 0.21 in 0.10 in 1.50 in (1976)
Month to date precipitation 2.34 2.55  
Year to date precipitation 2.34 2.55  
Sea Level Pressure  
Sea Level Pressure 30.28 in    
Wind  
Wind Speed 8 mph (SSW)    
Max Wind Speed 17 mph    
Max Gust Speed 21 mph    
Visibility 5 miles    
Events Rain    
T = Trace of Precipitation, MM = Missing Value Source: NWS Daily Summary

Daily Weather History Graph

Daily Weather History Graph

Search for Another Location

Airport or City:

Trip Planner

Search our weather history database for the weather conditions in past years. The results will help you decide how hot, cold, wet, or windy it might be!

Date:

Astronomy

Jan. 28, 2013 Rise Set
Actual Time 7:21 AM EST 5:32 PM EST
Civil Twilight 6:53 AM EST 6:00 PM EST
Nautical Twilight 6:21 AM EST 6:32 PM EST
Astronomical Twilight 5:50 AM EST 7:03 PM EST
Moon 7:22 PM EST (1/28) 7:48 AM EST (1/28)
Length of Visible Light 11h 07m
Length of Day
10h 10m
Full, 98% of the Moon is Illuminated
Jan 28
Full
Feb 3
Last Quarter
Feb 10
New
Feb 17
First Quarter
Feb 25
Full

Hourly Weather History & Observations

Time (EST) Temp. Windchill Dew Point Humidity Pressure Visibility Wind Dir Wind Speed Gust Speed Precip Events Conditions
12:53 AM 30.9 °F 25.2 °F 21.9 °F 69% 30.45 in 10.0 mi South 5.8 mph - N/A   Mostly Cloudy
1:53 AM 32.0 °F 28.7 °F 21.9 °F 66% 30.43 in 10.0 mi South 3.5 mph - N/A   Overcast
2:53 AM 32.0 °F 27.5 °F 23.0 °F 69% 30.43 in 9.0 mi South 4.6 mph - 0.00 in   Overcast
3:53 AM 30.9 °F 25.2 °F 26.1 °F 82% 30.41 in 7.0 mi South 5.8 mph - 0.00 in   Overcast
4:20 AM 30.2 °F 24.3 °F 26.6 °F 86% 30.39 in 5.0 mi South 5.8 mph - 0.00 in Rain Light Freezing Rain
4:53 AM 30.9 °F 24.3 °F 28.0 °F 89% 30.39 in 4.0 mi South 6.9 mph - 0.02 in Rain Light Freezing Rain
5:53 AM 32.0 °F 25.6 °F 28.9 °F 88% 30.39 in 3.0 mi South 6.9 mph - 0.01 in Rain Light Freezing Rain
6:02 AM 32.0 °F 25.6 °F 30.2 °F 93% 30.37 in 2.5 mi South 6.9 mph - 0.02 in Rain Light Freezing Rain
6:13 AM 32.0 °F 23.6 °F 30.2 °F 93% 30.37 in 2.5 mi SSW 10.4 mph - 0.03 in   Overcast
6:21 AM 32.0 °F 24.8 °F 30.2 °F 93% 30.37 in 3.0 mi SSW 8.1 mph - 0.04 in   Overcast
6:25 AM 32.0 °F 24.8 °F 30.2 °F 93% 30.37 in 2.5 mi SSW 8.1 mph - 0.04 in   Overcast
6:36 AM 32.0 °F 23.6 °F 30.2 °F 93% 30.37 in 3.0 mi SSW 10.4 mph - 0.06 in   Overcast
6:53 AM 32.0 °F 24.2 °F 30.0 °F 92% 30.39 in 3.0 mi SSW 9.2 mph - 0.08 in   Overcast
7:53 AM 32.0 °F 23.0 °F 30.9 °F 96% 30.38 in 3.0 mi SSW 11.5 mph - 0.01 in   Overcast
8:10 AM 32.0 °F 24.2 °F 30.2 °F 93% 30.36 in 2.0 mi SSW 9.2 mph - 0.00 in Rain Light Rain
8:53 AM 33.1 °F 24.4 °F 30.9 °F 92% 30.37 in 2.0 mi SSW 11.5 mph - 0.01 in Rain Light Rain
8:56 AM 33.8 °F 26.4 °F 30.2 °F 87% 30.34 in 3.0 mi South 9.2 mph - 0.00 in Rain Light Rain
9:03 AM 33.8 °F 26.4 °F 30.2 °F 87% 30.34 in 1.5 mi SSW 9.2 mph - 0.00 in Rain Light Rain
9:53 AM 33.1 °F 24.4 °F 30.9 °F 92% 30.34 in 1.5 mi SSW 11.5 mph - 0.02 in Rain Light Rain
10:53 AM 35.1 °F 27.4 °F 33.1 °F 92% 30.33 in 1.5 mi South 10.4 mph - 0.06 in   Overcast
11:00 AM 35.6 °F 27.1 °F 33.8 °F 93% 30.31 in 2.5 mi South 12.7 mph - N/A   Overcast
11:53 AM 36.0 °F 29.6 °F 34.0 °F 93% 30.29 in 2.5 mi SSW 8.1 mph - N/A   Overcast
12:06 PM 35.6 °F 27.5 °F 33.8 °F 93% 30.26 in 2.5 mi South 11.5 mph - N/A   Overcast
12:45 PM 37.4 °F 30.3 °F 35.6 °F 93% 30.24 in 3.0 mi South 10.4 mph - N/A   Overcast
12:53 PM 37.9 °F 31.5 °F 36.0 °F 93% 30.25 in 2.5 mi SSW 9.2 mph - N/A   Overcast
1:00 PM 39.2 °F 32.0 °F 35.6 °F 87% 30.23 in 3.0 mi SSW 11.5 mph - N/A   Overcast
1:46 PM 42.8 °F 35.8 °F 37.4 °F 81% 30.19 in 5.0 mi South 13.8 mph 18.4 mph N/A   Haze
1:53 PM 42.1 °F 34.9 °F 37.0 °F 82% 30.19 in 5.0 mi South 13.8 mph 18.4 mph N/A   Haze
2:04 PM 41.0 °F 33.5 °F 35.6 °F 81% 30.17 in 5.0 mi SSW 13.8 mph 20.7 mph N/A   Haze
2:53 PM 46.0 °F 39.9 °F 37.9 °F 73% 30.16 in 6.0 mi SSW 13.8 mph 17.3 mph N/A   Haze
3:53 PM 46.9 °F - 37.9 °F 71% 30.14 in 7.0 mi South 16.1 mph 20.7 mph N/A   Scattered Clouds
4:53 PM 46.9 °F - 37.9 °F 71% 30.15 in 7.0 mi SSW 4.6 mph - N/A   Clear
5:53 PM 46.0 °F 43.1 °F 39.0 °F 76% 30.14 in 10.0 mi SW 5.8 mph - N/A   Mostly Cloudy
6:53 PM 45.0 °F - 37.9 °F 76% 30.13 in 9.0 mi Calm Calm - N/A   Clear
7:53 PM 48.0 °F - 39.0 °F 71% 30.12 in 10.0 mi SSW 9.2 mph - N/A   Partly Cloudy
8:53 PM 45.0 °F 39.3 °F 39.0 °F 80% 30.10 in 10.0 mi SSW 11.5 mph - N/A   Clear
9:53 PM 46.0 °F 43.1 °F 39.9 °F 79% 30.11 in 10.0 mi South 5.8 mph - N/A   Overcast
10:53 PM 46.0 °F 41.0 °F 41.0 °F 83% 30.10 in 10.0 mi SSW 10.4 mph - N/A   Mostly Cloudy
11:53 PM 50.0 °F - 43.0 °F 77% 30.09 in 10.0 mi SW 6.9 mph - N/A   Clear